Diyarbakir, Turkey

1:34 AM +03 on March 27, 2017 (GMT +0300)
Diyarbakir

Weather History for LTCC - June, 2013

Change the Weather History Date:

Sunday, June 30, 2013

  Actual Average Record
Temperature  
Mean Temperature 88 °F -  
Max Temperature 105 °F 101 °F 105 °F (2013)
Min Temperature 72 °F 71 °F 60 °F (2010)
Cooling Degree Days 24    
Growing Degree Days 38 (Base 50)    
Moisture  
Dew Point 32 °F    
Average Humidity 13    
Maximum Humidity 21    
Minimum Humidity 4    
Precipitation  
Precipitation 0.00 in 0.00 in - ()
Sea Level Pressure  
Sea Level Pressure 29.64 in    
Wind  
Wind Speed 8 mph ()    
Max Wind Speed 20 mph    
Max Gust Speed -    
Visibility 12.0 miles    
Events      
Averages and records for this station are not official NWS values.
T = Trace of Precipitation, MM = Missing Value Source: Averaged Metar Reports

Daily Weather History Graph

Daily Weather History Graph

Search for Another Location

Airport or City:

Trip Planner

Search our weather history database for the weather conditions in past years. The results will help you decide how hot, cold, wet, or windy it might be!

Date:

Astronomy

Jun. 30, 2013 Rise Set
Actual Time 5:00 AM EEST 7:45 PM EEST
Civil Twilight 4:28 AM EEST 8:16 PM EEST
Nautical Twilight 3:49 AM EEST 8:55 PM EEST
Astronomical Twilight 3:05 AM EEST 9:40 PM EEST
Moon No Moon Rise 12:42 PM EEST (6/30)
Length of Visible Light 15h 47m
Length of Day
14h 45m
Waning Gibbous, 48% of the Moon is Illuminated
Jun 30
Waning Gibbous
Jul 8
New
Jul 16
First Quarter
Jul 22
Full
Jul 29
Last Quarter

Hourly Weather History & Observations

Time (EEST) Temp. Dew Point Humidity Pressure Visibility Wind Dir Wind Speed Gust Speed Precip Events Conditions
12:20 AM 80.6 °F 30.2 °F 16% 29.65 in - WNW 11.5 mph - N/A   Clear
12:50 AM 78.8 °F 30.2 °F 17% 29.65 in - WNW 8.1 mph - N/A   Clear
1:20 AM 77.0 °F 28.4 °F 17% 29.65 in - WNW 9.2 mph - N/A   Clear
1:50 AM 78.8 °F 28.4 °F 16% 29.65 in - NNW 6.9 mph - N/A   Clear
2:20 AM 82.4 °F 26.6 °F 13% 29.65 in - WNW 16.1 mph - N/A   Clear
2:50 AM 80.6 °F 26.6 °F 14% 29.65 in - NW 11.5 mph - N/A   Clear
3:00 AM 80 °F 26 °F 6% 29.48 in 12 mi NW 11.5 mph - -  
3:20 AM 77.0 °F 28.4 °F 17% 29.65 in - WNW 8.1 mph - N/A   Clear
3:50 AM 75.2 °F 28.4 °F 18% 29.65 in - WNW 8.1 mph - N/A   Clear
4:20 AM 77.0 °F 26.6 °F 16% 29.65 in - WNW 10.4 mph - N/A   Clear
4:50 AM 75.2 °F 26.6 °F 17% 29.68 in - NW 9.2 mph - N/A   Clear
5:20 AM 75.2 °F 28.4 °F 18% 29.68 in - NNW 5.8 mph - N/A   Clear
5:50 AM 78.8 °F 26.6 °F 15% 29.68 in - NNW 3.5 mph - N/A   Clear
6:20 AM 80.6 °F 32.0 °F 17% 29.68 in - WNW 4.6 mph - N/A   Clear
6:50 AM 84.2 °F 30.2 °F 14% 29.68 in - WNW 6.9 mph - N/A   Clear
7:20 AM 86.0 °F 32.0 °F 14% 29.68 in - NNW 6.9 mph - N/A   Clear
7:50 AM 87.8 °F 33.8 °F 15% 29.68 in - NNW 9.2 mph - N/A   Clear
8:20 AM 89.6 °F 35.6 °F 15% 29.68 in - North 9.2 mph - N/A   Clear
8:50 AM 91.4 °F 37.4 °F 15% 29.68 in - NNW 9.2 mph - N/A   Clear
9:00 AM 92 °F 36 °F 7% 29.53 in 12 mi NNW 9.2 mph - -  
9:20 AM 93.2 °F 39.2 °F 15% 29.68 in - North 6.9 mph - N/A   Clear
9:50 AM 95.0 °F 41.0 °F 15% 29.68 in - North 6.9 mph - N/A   Clear
10:20 AM 95.0 °F 41.0 °F 15% 29.68 in - North 5.8 mph - N/A   Clear
10:50 AM 98.6 °F 41.0 °F 14% 29.68 in - Variable 4.6 mph - N/A   Clear
11:20 AM 98.6 °F 39.2 °F 13% 29.68 in - NNE 4.6 mph - N/A   Clear
11:50 AM 98.6 °F 39.2 °F 13% 29.65 in - East 6.9 mph - N/A   Clear
12:20 PM 100.4 °F 37.4 °F 11% 29.65 in - Variable 4.6 mph - N/A   Clear
12:50 PM 98.6 °F 32.0 °F 10% 29.65 in - Variable 6.9 mph - N/A   Clear
1:20 PM 100.4 °F 32.0 °F 9% 29.65 in - ESE 5.8 mph - N/A   Clear
1:50 PM 102.2 °F 35.6 °F 10% 29.65 in - Variable 4.6 mph - N/A   Clear
2:20 PM 102.2 °F 32.0 °F 9% 29.65 in - Variable 5.8 mph - N/A   Clear
2:50 PM 102.2 °F 33.8 °F 9% 29.62 in - North 8.1 mph - N/A   Clear
3:00 PM 102 °F 30 °F 4% 29.46 in 12 mi North 8.1 mph - -  
3:20 PM 104.0 °F 28.4 °F 7% 29.62 in - Variable 5.8 mph - N/A   Clear
3:50 PM 104.0 °F 28.4 °F 7% 29.62 in - Variable 2.3 mph - N/A   Clear
4:20 PM 104.0 °F 24.8 °F 6% 29.62 in - West 16.1 mph - N/A   Clear
4:50 PM 104.0 °F 21.2 °F 5% 29.62 in - West 10.4 mph - N/A   Clear
5:20 PM 104.0 °F 21.2 °F 5% 29.62 in - WNW 9.2 mph - N/A   Clear
5:50 PM 102.2 °F 14.0 °F 4% 29.59 in - WNW 11.5 mph - N/A   Clear
6:20 PM 102.2 °F 19.4 °F 5% 29.62 in - WNW 11.5 mph - N/A   Clear
6:50 PM 98.6 °F 21.2 °F 6% 29.62 in - WNW 11.5 mph - N/A   Clear
7:20 PM 95.0 °F 24.8 °F 8% 29.62 in - West 10.4 mph - N/A   Clear
7:50 PM 89.6 °F 28.4 °F 11% 29.62 in - West 9.2 mph - N/A   Clear
8:20 PM 89.6 °F 35.6 °F 15% 29.62 in - West 10.4 mph - N/A   Clear
8:50 PM 89.6 °F 37.4 °F 16% 29.62 in - West 10.4 mph - N/A   Clear
9:00 PM 89 °F 36 °F 8% 29.46 in 12 mi West 10.4 mph - -  
9:20 PM 87.8 °F 37.4 °F 17% 29.65 in - West 11.5 mph - N/A   Clear
9:50 PM 87.8 °F 37.4 °F 17% 29.65 in - West 13.8 mph - N/A   Clear
10:20 PM 87.8 °F 42.8 °F 21% 29.65 in - West 15.0 mph - N/A   Clear
10:50 PM 87.8 °F 42.8 °F 21% 29.65 in - West 18.4 mph - N/A   Clear
11:20 PM 87.8 °F 35.6 °F 16% 29.65 in - West 19.6 mph - N/A   Clear
11:50 PM 86.0 °F 35.6 °F 17% 29.65 in - West 16.1 mph - N/A   Clear